Regional Weather Roundup
Issued by NWS

Home | Current Version | Previous Version | Text Only | Print | Product List | Glossary On
Versions: 1 2 3 4 5 6 7 8 9 10 11 12 13 14 15 16 17 18 19 20 21 22 23 24 25 26 27 28 29 30 31 32 33 34 35 36 37 38 39 40 41 42 43 44 45 46 47 48 49 50
000
ASUS43 KMKX 250100
RWRWI

WISCONSIN REGIONAL WEATHER ROUNDUP
NATIONAL WEATHER SERVICE MILWAUKEE/SULLIVAN WI
800 PM CDT WED AUG 24 2016

NOTE: "FAIR" INDICATES FEW OR NO CLOUDS BELOW 12,000 FEET WITH NO
SIGNIFICANT WEATHER AND/OR OBSTRUCTIONS TO VISIBILITY.

WIZ001-002-006>008-014>016-023>028-250200-
NORTHWEST WISCONSIN

CITY           SKY/WX    TMP DP  RH WIND       PRES   REMARKS
SUPERIOR ARPT  PTCLDY    73  57  57 W8        29.87R
ASHLAND        PTCLDY    69  58  67 SW7       29.88R
HAYWARD        CLOUDY    70  58  65 SW6       29.92R
SIREN          CLOUDY    70  57  63 W9        29.94R
CUMBERLAND     CLOUDY    68  54  60 W8        29.95R
RICE LAKE      CLOUDY    68  59  74 W3        29.95R
CHETEK         NOT AVBL
LADYSMITH      MOCLDY    70  60  70 W6        29.95R
EAU CLAIRE     NOT AVBL
MENOMONIE      PTCLDY    72  58  60 W7        29.95R
NEW RICHMOND   CLOUDY    68  57  67 W7        29.97R
OSCEOLA        CLOUDY    69  57  64 W7        29.99R
$$

WIZ003>005-009-010-017-018-250200-
NORTH CENTRAL WISCONSIN

CITY           SKY/WX    TMP DP  RH WIND       PRES   REMARKS
MANITOWISH WTR NOT AVBL
ARBOR VITAE    CLEAR     72  68  87 CALM      29.92R
WOODRUFF       CLEAR     72  68  87 CALM      29.92R
RHINELANDER    CLEAR     68  66  93 CALM      29.93R
EAGLE RIVER    CLEAR     68  64  85 W5        29.91S
LAND O LAKES   PTCLDY    70  65  85 W3        29.92R
PHILLIPS       CLOUDY    68  62  79 CALM      29.92S
TOMAHAWK       PTCLDY    69  64  82 CALM      29.93S
MEDFORD        CLOUDY    70  66  89 W5        29.94R
MERRILL        PTCLDY    70  67  88 W3        29.94R
$$

WIZ029-030-035-036-043>047-250200-
CENTRAL WISCONSIN

CITY           SKY/WX    TMP DP  RH WIND       PRES   REMARKS
WAUSAU         PTCLDY    71  66  84 W5        29.92R
MOSINEE        CLEAR     70  66  88 W6        29.95R
MARSHFIELD     PTCLDY    70  65  84 W5        29.94R
STEVENS POINT  PTCLDY    72  67  84 W3        29.94R
WAUPACA        PTCLDY    76  73  87 CALM      29.92R
WAUTOMA        PTCLDY    73  71  93 CALM      29.93S
WISC RAPIDS    PTCLDY    72  69  90 W3        29.95R
CAMP DOUGLAS   NOT AVBL
$$

WIZ011>013-019>022-031-037>040-048>050-250200-
NORTHEAST WISCONSIN

CITY           SKY/WX    TMP DP  RH WIND       PRES   REMARKS
ANTIGO         MOCLDY    70  66  86 W3        29.93S
SHAWANO        PTCLDY    75  67  76 W3        29.91R
OCONTO         NOT AVBL
STURGEON BAY   CLEAR     73  68  84 SW6       29.90R
GREEN BAY      CLEAR     73  70  90 SW5       29.91R
MANITOWOC      NOT AVBL
APPLETON       MOCLDY    73  66  78 SW3       29.91R
CLINTONVILLE   PTCLDY    73  66  78 W3        29.91R
OSHKOSH        CLEAR     75  70  84 CALM      29.92R
$$

WIZ032>034-041-042-053>061-250200-
SOUTHWEST WISCONSIN

CITY           SKY/WX    TMP DP  RH WIND       PRES   REMARKS
LA CROSSE      CLEAR     74  32  21 W5        29.94R
SPARTA         CLOUDY    73  69  87 NW5       29.95S
VIROQUA        CLEAR     72  70  93 W3        29.97R
BOSCOBEL       MOCLDY    78  73  84 SW5       29.94R HX  81
PRAIRIE DU CHI CLOUDY    77  71  81 W5        29.94R
PLATTEVILLE    CLOUDY    77  74  90 W5        29.97R
$$

WIZ056-057-062-063-064-067-068-250200-
SOUTH CENTRAL WISCONSIN

CITY           SKY/WX    TMP DP  RH WIND       PRES   REMARKS
REEDSBURG      NOT AVBL
BARABOO/DELLS  MOCLDY    76  71  84 CALM      29.94R
LONE ROCK      NOT AVBL
MINERAL POINT  CLOUDY    79  73  83 W3        29.97R HX  82
MADISON        CLOUDY    78  75  90 W3        29.93R HX  81
MIDDLETON      CLOUDY    78  77  95 SW3       29.94R HX  81
WATERTOWN      CLOUDY    79  74  85 CALM      29.93R HX  83
MONROE         MOCLDY    79  72  78 W10       29.96R HX  82
JANESVILLE     PTCLDY    79  73  83 SW6       29.93S HX  82
$$

WIZ051-052-058>065-066-070>072-250200-
SOUTHEAST WISCONSIN

CITY           SKY/WX    TMP DP  RH WIND       PRES   REMARKS
MILWAUKEE      PTCLDY    83  71  67 W7        29.93R HX  87
WAUKESHA       PTCLDY    75  70  83 SW5       29.95R
MILWAUKEE/TIMM PTCLDY    79  68  69 W6        29.93R HX  81
RACINE         CLEAR     80  71  74 SW3       29.95R HX  84
BURLINGTON     PTCLDY    75  70  83 CALM      29.94R
KENOSHA        CLEAR     78  72  81 SW6       29.94R HX  80
FOND DU LAC    CLEAR     74  70  87 S3        29.93R
SHEBOYGAN      CLEAR     76  70  82 W5        29.92R
WEST BEND      PTCLDY    79  70  73 W5        29.94R HX  81
JUNEAU         CLOUDY    77  72  84 W3        29.94S
$$

LSZ147-162-250200-
LAKE SUPERIOR

STATION/POSITION TIME  TEMP    WIND        PRES    WAVE
                       AIR SEA DIR/SP/G            HT/PER
                 (UTC) (F)     (DEG/KT/KT) (MB)    (FT/S)
W MID LAKE BUOY  2350   71 69  210/ 12/ 14 1008.0R   2/ 4
DEVILS ISLAND    0000   71     250/ 16/ 17 1009.7R
PORT WING        0040   75     240/  8/ 14 1011.5R
SAXON HARBOR     0040   72     200/  3/  5 1011.2R
$$

LMZ867-665-643>646-250200-
LAKE MICHIGAN

STATION/POSITION TIME  TEMP    WIND        PRES    WAVE
                       AIR SEA DIR/SP/G            HT/PER
                 (UTC) (F)     (DEG/KT/KT) (MB)    (FT/S)
CHAMBERS ISLAND  0000   74     200/  4/  9 1011.2R
S GREEN BAY BUOY 0000   76 73  240/  8/ 10 1011.3
N MID LAKE BUOY  2350   71 70  220/ 12/ 16 1010.1R   6/ 7
NORTHPORT PIER   0000   75     230/  3/  8 1010.8R
SISTER BAY       2307   77     240/ 13/ 15   N/A
ALGOMA LAKESHORE 0000          260/  8/ 10   N/A
KEWAUNEE LAKESHO 0000   79     270/  5/  9 1011.6R
SHEBOYGAN LAKESH 0000   76     280/  2/  5 1012.0R
PORT WASHINGTON  0000   83     270/  5/ 20 1013.2R
ATWATER BUOY     0000   72 45  260/  6/  8   N/A
MILWAUKEE LAKESH 0010   83     270/  9/ 12   N/A
S MID LAKE BUOY  2350   75 75  170/  6/  6 1012.3S   3/ 5
KENOSHA   LAKESH 0000   82     270/  9/ 13 1012.5S
$$

TC  - TEMPERATURE IN CELSIUS
VSB - VISIBILITY IN STATUTE MILES
WCI - WIND CHILL INDEX
HX  - HEAT INDEX





USA.gov is the U.S. government's official web portal to all federal, state and local government web resources and services.